Total_Precipitation_Accumulation
2.32 1.92 3.23 3.35 3.04 2.72 2.50 2.53 2.66 2.65 2.70 2.63 2.50 2.27 2.07 1.98 1.97 1.99 1.87 1.68 1.58 1.60 1.86 2.00 1.87 1.87 1.69 1.64 1.71 1.80 1.90 1.92 1.94 1.71 1.53 1.49 1.39 1.48 1.62 1.77 2.05 2.35 1.95
1.64 1.62 2.85 3.24 3.13 2.90 2.75 2.70 2.68 2.68 2.68 2.54 2.37 2.25 2.00 1.79 1.86 2.10 1.87 1.77 1.66 1.57 1.71 1.89 1.92 1.95 1.86 1.83 1.93 1.93 1.88 1.77 1.83 1.79 1.77 1.78 1.59 1.55 1.50 1.63 2.05 2.30 1.79
1.44 1.54 2.27 3.16 3.08 2.80 2.76 2.72 2.60 2.58 2.55 2.36 2.18 2.01 1.92 1.73 1.80 2.04 1.89 1.84 1.73 1.59 1.69 1.88 2.05 2.09 2.05 2.08 2.12 2.06 1.95 1.89 1.86 1.82 2.20 2.65 2.09 1.74 1.68 1.67 1.73 1.76 1.73
1.20 1.30 1.82 2.66 2.60 2.51 2.50 2.37 2.29 2.20 2.11 2.14 2.10 1.90 1.82 1.75 1.87 2.03 1.91 1.78 1.67 1.57 1.62 1.80 1.98 1.96 2.00 2.09 2.02 2.01 1.93 1.96 2.03 1.88 2.16 2.60 2.50 2.09 1.95 1.89 1.74 1.74 1.89
1.01 1.22 1.86 2.48 2.42 2.40 2.33 2.09 2.07 1.95 1.84 1.85 1.92 1.82 1.84 1.73 1.73 1.81 1.81 1.77 1.72 1.67 1.67 1.77 1.82 1.81 1.96 2.04 1.96 1.94 1.96 2.10 2.07 1.74 1.78 2.18 2.73 2.44 2.03 1.97 1.85 1.87 1.96
1.09 1.17 1.59 2.10 2.11 2.09 2.01 1.98 1.92 1.82 1.80 1.73 1.70 1.71 1.76 1.73 1.67 1.64 1.72 1.71 1.69 1.88 1.97 1.94 1.90 1.99 2.01 2.08 2.00 2.00 2.08 2.04 1.84 1.85 1.93 2.20 2.60 2.42 1.91 1.73 1.86 1.97 2.04
1.00 1.01 1.29 1.85 1.83 1.78 1.80 1.88 1.92 1.84 1.81 1.72 1.66 1.75 1.85 1.77 1.70 1.64 1.71 1.73 1.69 1.79 2.01 1.96 1.90 1.94 1.92 2.00 1.99 1.92 2.01 1.94 1.80 1.93 2.05 2.29 2.31 2.23 1.89 1.71 1.87 1.95 2.01
1.10 1.01 1.14 1.71 1.83 1.72 1.76 1.77 1.83 1.90 1.84 1.72 1.66 1.66 1.70 1.70 1.62 1.60 1.60 1.72 1.73 1.79 1.95 1.94 1.83 1.81 1.66 1.69 1.76 1.76 1.84 1.69 1.49 1.63 1.90 2.26 2.44 2.29 1.84 1.64 1.63 1.80 1.93
1.36 1.30 1.34 1.50 1.60 1.73 1.79 1.77 1.92 2.05 1.93 1.71 1.56 1.52 1.48 1.54 1.52 1.47 1.49 1.64 1.69 1.76 1.85 1.85 1.82 1.83 1.71 1.65 1.69 1.75 1.80 1.59 1.38 1.61 1.58 2.09 2.56 2.38 1.94 1.65 1.54 1.70 1.81
1.31 1.27 1.33 1.43 1.45 1.48 1.60 1.86 2.07 2.39 2.25 1.84 1.56 1.40 1.41 1.35 1.36 1.45 1.42 1.56 1.67 1.80 2.00 2.01 1.99 1.88 1.88 1.77 1.74 1.78 1.69 1.35 1.32 1.35 1.58 1.96 2.66 2.48 2.00 1.70 1.52 1.48 1.53
1.01 1.06 1.16 1.23 1.26 1.34 1.34 1.57 2.01 2.40 2.41 1.99 1.63 1.50 1.28 0.98 0.97 1.22 1.42 1.68 1.81 1.95 2.27 2.33 2.23 2.02 1.87 1.78 1.75 1.71 1.38 1.09 1.32 1.40 1.69 2.21 2.61 2.49 2.01 1.70 1.52 1.47 1.37
0.81 0.77 0.79 0.83 0.94 1.03 1.04 1.35 1.63 1.68 1.88 1.62 1.54 1.42 1.27 1.22 1.17 1.02 1.19 1.63 1.90 1.97 2.21 2.36 2.28 1.90 1.50 1.35 1.44 1.46 1.15 1.06 1.17 1.29 1.66 2.38 2.75 2.57 2.03 1.69 1.56 1.53 1.40
0.76 0.73 0.66 0.66 0.73 0.87 1.02 1.19 1.38 1.54 1.69 1.67 1.59 1.53 1.56 1.54 1.21 1.07 1.13 1.28 1.49 1.61 1.62 1.77 1.80 1.53 1.27 1.22 1.35 1.26 1.09 1.03 1.11 1.23 1.71 2.42 2.85 2.67 2.12 1.76 1.71 1.67 1.64
0.63 0.72 0.68 0.54 0.56 0.66 0.76 0.94 1.10 1.31 1.50 1.54 1.34 1.26 1.40 1.45 1.27 1.16 1.30 1.35 1.44 1.57 1.63 1.65 1.60 1.40 1.14 1.11 1.24 1.24 1.10 1.14 1.13 1.20 1.60 2.05 2.52 2.68 2.43 2.10 2.02 1.93 1.97
0.63 0.71 0.74 0.64 0.59 0.64 0.70 0.78 0.80 1.09 1.26 1.39 1.44 1.21 1.32 1.38 1.33 1.23 1.21 1.37 1.37 1.49 1.53 1.60 1.63 1.48 1.33 1.22 1.23 1.21 1.25 1.22 1.14 1.10 1.39 1.60 1.86 2.38 2.63 2.58 2.47 2.29 2.20
0.59 0.68 0.70 0.72 0.70 0.70 0.72 0.73 0.72 0.78 0.85 0.93 0.88 0.85 1.04 1.18 1.21 1.24 1.15 1.22 1.33 1.52 1.74 1.79 1.62 1.52 1.42 1.37 1.38 1.34 1.33 1.25 1.20 1.10 1.28 1.39 1.34 1.59 2.08 2.62 2.85 2.67 2.49
0.57 0.63 0.68 0.73 0.79 0.81 0.82 0.87 0.83 0.77 0.78 0.75 0.70 0.71 0.82 0.94 1.03 1.16 1.22 1.20 1.26 1.51 1.77 1.91 1.74 1.60 1.44 1.44 1.45 1.45 1.37 1.35 1.27 1.19 1.31 1.47 1.34 1.31 1.66 2.25 2.81 2.94 2.80
0.57 0.54 0.56 0.58 0.68 0.73 0.78 0.82 0.91 0.90 0.89 0.85 0.85 0.81 0.77 0.91 1.05 1.17 1.27 1.23 1.26 1.47 1.71 1.92 1.95 1.92 1.83 1.76 1.66 1.58 1.52 1.63 1.48 1.36 1.41 1.53 1.66 1.50 1.48 1.76 2.20 2.63 2.85
0.50 0.44 0.43 0.47 0.50 0.53 0.57 0.65 0.77 0.85 0.91 0.98 0.98 0.98 0.99 1.05 1.09 1.21 1.43 1.47 1.46 1.58 1.68 1.72 1.86 1.88 1.94 1.94 1.73 1.68 1.60 1.72 1.80 1.69 1.74 1.78 1.85 1.81 1.65 1.52 1.64 1.83 2.35
0.41 0.42 0.42 0.43 0.43 0.41 0.43 0.53 0.66 0.74 0.80 1.00 1.06 1.09 1.37 1.50 1.31 1.28 1.46 1.50 1.53 1.72 1.79 1.88 2.09 2.04 1.95 2.04 1.86 1.75 1.71 1.71 1.74 1.92 2.05 2.01 1.95 1.82 1.79 1.62 1.65 1.56 1.87
0.27 0.25 0.31 0.34 0.41 0.40 0.35 0.40 0.54 0.66 0.79 0.94 1.12 1.15 1.37 1.51 1.43 1.46 1.49 1.53 1.56 1.65 1.72 1.89 2.23 2.25 2.07 1.97 2.18 2.17 2.07 1.87 1.78 1.84 1.93 2.09 2.10 1.90 1.89 1.88 1.74 1.61 1.51
0.24 0.18 0.20 0.23 0.33 0.40 0.42 0.48 0.62 0.80 0.92 1.04 1.22 1.27 1.36 1.39 1.40 1.35 1.52 1.62 1.58 1.72 1.79 1.97 2.28 2.50 2.26 2.07 2.43 2.89 2.66 2.38 2.03 1.78 1.76 1.74 1.92 1.90 1.79 1.69 1.61 1.57 1.51
0.17 0.14 0.18 0.26 0.40 0.55 0.70 0.94 1.19 1.49 1.65 1.57 1.47 1.53 1.62 1.69 1.64 1.60 1.68 1.80 1.72 1.77 1.89 1.94 2.05 2.53 2.67 2.42 2.37 2.95 2.84 2.63 2.59 2.04 1.61 1.46 1.67 1.82 1.83 1.71 1.65 1.69 1.68
0.21 0.27 0.36 0.48 0.64 0.79 0.98 1.21 1.47 1.73 1.93 1.97 2.03 2.06 2.03 1.96 1.84 1.73 1.76 1.82 1.82 1.88 1.86 1.73 1.90 2.36 2.85 2.90 2.67 2.46 2.31 2.28 2.48 2.36 1.78 1.45 1.51 1.65 1.81 1.70 1.67 1.75 1.79
0.38 0.51 0.62 0.85 1.01 1.13 1.18 1.27 1.49 1.59 1.68 1.80 1.97 2.04 2.04 1.98 1.86 1.71 1.66 1.77 1.82 1.89 1.89 1.95 2.11 2.42 2.71 2.99 2.97 2.70 2.40 2.17 1.81 2.00 1.99 1.76 1.50 1.40 1.46 1.56 1.68 1.71 1.75
0.67 0.90 1.03 1.14 1.25 1.23 1.19 1.20 1.32 1.47 1.56 1.66 1.83 1.90 1.85 1.75 1.71 1.64 1.61 1.63 1.61 1.68 1.78 1.96 2.19 2.33 2.53 2.76 2.84 2.57 2.39 2.28 2.07 1.93 1.77 1.82 1.78 1.49 1.33 1.30 1.40 1.54 1.60